Want create site? With Free visual composer you can do it easy.

Bir-Billing Half Marathon Promo Run

Results

10KM Category

S.no. Name Bib No. Start Time Finish Time Net Time Pace(min/km) Speed(Km/hr) Ranking
1 Lucky Kapoor 53 8:43:30 AM 9:30:00 AM 0:46:30 4:39 12.9 1/68 finishers
2 Aman Narayan 76 8:43:30 AM 9:32:04 AM 0:48:34 4:51 12.35 2/68 finishers
3 Amit Kumar 55 8:43:30 AM 9:33:40 AM 0:50:10 5:01 11.96 3/68 finishers
4 Nitin Rana 45 8:43:30 AM 9:34:27 AM 0:50:57 5:06 11.78 4/68 finishers
5 Vishal Kumar 86 8:43:30 AM 9:35:43 AM 0:52:13 5:13 11.49 5/68 finishers
6 Sahil 40 8:43:30 AM 9:35:45 AM 0:52:15 5:14 11.48 6/68 finishers
7 Gaurav Thakur 43 8:43:30 AM 9:35:45 AM 0:52:15 5:14 11.48 6/68 finishers
8 Akash Kuna 89 8:43:30 AM 9:35:45 AM 0:52:15 5:14 11.48 6/68 finishers
9 Kuldeep Thakur 44 8:43:30 AM 9:35:47 AM 0:52:17 5:14 11.48 7/68 finishers
10 Abhishek Thakur 62 8:43:30 AM 9:36:33 AM 0:53:03 5:18 11.31 8/68 finishers
11 R. S. Bisht 92 8:43:30 AM 9:39:01 AM 0:55:31 5:33 10.81 9/68 finishers
12 Atul 82 8:43:30 AM 9:39:40 AM 0:56:10 5:37 10.68 10/68 finishers
13 Sourabh Thakur 109 8:43:30 AM 9:40:25 AM 0:56:55 5:41 10.54 11/68 finishers
14 Navin 30 8:43:30 AM 9:40:44 AM 0:57:14 5:43 10.48 12/68 finishers
15 Saurab 26 8:43:30 AM 9:40:59 AM 0:57:29 5:45 10.44 13/68 finishers
16 Ricky 42 8:43:30 AM 9:41:00 AM 0:57:30 5:45 10.43 14/68 finishers
17 Santosh Kumar 46 8:43:30 AM 9:41:05 AM 0:57:35 5:46 10.42 15/68 finishers
18 Sachin 31 8:43:30 AM 9:41:52 AM 0:58:22 5:50 10.28 16/68 finishers
19 Rajeev 49 8:43:30 AM 9:43:27 AM 0:59:57 6:00 10.01 17/68 finishers
20 Vishal Thakur 79 8:43:30 AM 9:43:50 AM 1:00:20 6:02 9.94 18/68 finishers
21 Akshay Bisht 87 8:43:30 AM 9:43:50 AM 1:00:20 6:02 9.94 18/68 finishers
22 Ram Singh 114 8:43:30 AM 9:44:20 AM 1:00:50 6:05 9.86 19/68 finishers
23 Kapil 73 8:43:30 AM 9:44:25 AM 1:00:55 6:05 9.85 20/68 finishers
24 Vikas Chauhan 51 8:43:30 AM 9:44:30 AM 1:01:00 6:06 9.84 21/68 finishers
25 Shabir Kumar 74 8:43:30 AM 9:44:50 AM 1:01:20 6:08 9.78 22/68 finishers
26 Devansh Thakur 63 8:43:30 AM 9:45:00 AM 1:01:30 6:09 9.76 23/68 finishers
27 Ravinder Kumar 80 8:43:30 AM 9:45:09 AM 1:01:39 6:10 9.73 24/68 finishers
28 Sahil Kumar 68 8:43:30 AM 9:47:43 AM 1:04:13 6:25 9.34 25/68 finishers
29 Vijay 22 8:43:30 AM 9:48:28 AM 1:04:58 6:30 9.24 26/68 finishers
30 Ajay Kumar 38 8:43:30 AM 9:48:28 AM 1:04:58 6:30 9.24 26/68 finishers
31 Arjun Kumar 48 8:43:30 AM 9:50:17 AM 1:06:47 6:41 8.98 27/68 finishers
32 Vijay Kumar 35 8:43:30 AM 9:50:30 AM 1:07:00 6:42 8.96 28/68 finishers
33 Shravan Kumar 71 8:43:30 AM 9:50:30 AM 1:07:00 6:42 8.96 28/68 finishers
34 Lucky 37 8:43:30 AM 9:51:20 AM 1:07:50 6:47 8.85 29/68 finishers
35 Shanom 94 8:43:30 AM 9:51:20 AM 1:07:50 6:47 8.85 29/68 finishers
36 Avinash 20 8:43:30 AM 9:52:10 AM 1:08:40 6:52 8.74 30/68 finishers
37 Sourab 77 8:43:30 AM 9:52:10 AM 1:08:40 6:52 8.74 30/68 finishers
38 Akshay Kumar 113 8:43:30 AM 9:52:10 AM 1:08:40 6:52 8.74 30/68 finishers
39 Anil 24 8:43:30 AM 9:53:27 AM 1:09:57 7:00 8.58 31/68 finishers
40 Abhishek Thakur 72 8:43:30 AM 9:54:45 AM 1:11:15 7:08 8.42 32/68 finishers
41 Vishal Goswami 57 8:43:30 AM 9:55:01 AM 1:11:31 7:09 8.39 33/68 finishers
42 Ajay Thakur 101 8:43:30 AM 9:55:01 AM 1:11:31 7:09 8.39 33/68 finishers
43 Sahil 81 8:43:30 AM 9:55:32 AM 1:12:02 7:12 8.33 34/68 finishers
44 Vishal 41 8:43:30 AM 9:58:41 AM 1:15:11 7:31 7.98 35/68 finishers
45 Shubham 18 8:43:30 AM 9:59:00 AM 1:15:30 7:33 7.95 36/68 finishers
46 Suraj 19 8:43:30 AM 9:59:00 AM 1:15:30 7:33 7.95 36/68 finishers
47 Suraj 27 8:43:30 AM 9:59:00 AM 1:15:30 7:33 7.95 36/68 finishers
48 Jatin Thakur 64 8:43:30 AM 9:59:56 AM 1:16:26 7:39 7.85 37/68 finishers
49 Meenakshi Bisht 93 8:43:30 AM 10:00:01 AM 1:16:31 7:39 7.84 38/68 finishers
50 Mohit 47 8:43:30 AM 10:02:35 AM 1:19:05 7:55 7.59 39/68 finishers
51 Ankit 23 8:43:30 AM 10:05:10 AM 1:21:40 8:10 7.35 40/68 finishers
52 Sahil 110 8:43:30 AM 10:05:10 AM 1:21:40 8:10 7.35 40/68 finishers
53 Rahul Kumar 50 8:43:30 AM 10:07:57 AM 1:24:27 8:27 7.1 41/68 finishers
54 Ishant Arora 111 8:43:30 AM 10:07:57 AM 1:24:27 8:27 7.1 41/68 finishers
55 Pawan Kumar 54 8:43:30 AM 10:08:00 AM 1:24:30 8:27 7.1 42/68 finishers
56 Akshay Kumar 69 8:43:30 AM 10:10:35 AM 1:27:05 8:42 6.89 43/68 finishers
57 Gaurav 21 8:43:30 AM 10:13:45 AM 1:30:15 9:01 6.65 44/68 finishers
58 Sunil 25 8:43:30 AM 10:13:45 AM 1:30:15 9:01 6.65 44/68 finishers
59 Arjun Yadav 29 8:43:30 AM 10:13:45 AM 1:30:15 9:01 6.65 44/68 finishers
60 Ankush 56 8:43:30 AM 10:13:45 AM 1:30:15 9:01 6.65 44/68 finishers
61 Munish 33 8:43:30 AM 10:14:32 AM 1:31:02 9:06 6.59 45/68 finishers
62 Alukesh Kumar 75 8:43:30 AM 10:14:44 AM 1:31:14 9:07 6.58 46/68 finishers
63 Arun Kumar 36 8:43:30 AM 10:17:34 AM 1:34:04 9:24 6.38 47/68 finishers
64 Mohit Thakur 84 8:43:30 AM 10:17:34 AM 1:34:04 9:24 6.38 47/68 finishers
65 Abhishek 17 8:43:30 AM 10:20:00 AM 1:36:30 9:39 6.22 48/68 finishers
66 Rishab 32 8:43:30 AM 10:20:00 AM 1:36:30 9:39 6.22 48/68 finishers
67 Santosh 34 8:43:30 AM 10:20:00 AM 1:36:30 9:39 6.22 48/68 finishers
68 Abhishek 58 8:43:30 AM 10:20:00 AM 1:36:30 9:39 6.22 48/68 finishers
69 Avinash Thakur 28 8:43:30 AM   DNF DNF
70 Lavneet 52 8:43:30 AM DNF DNF
71 Ayush Goswami 59 8:43:30 AM DNF DNF
72 Rohit Kumar 60 8:43:30 AM DNF DNF
73 Sunil Kumar 61 8:43:30 AM DNF DNF
74 Sunil Kumar 65 8:43:30 AM DNF DNF
75 Kushal Kapoor 66 8:43:30 AM DNF DNF
76 Rakesh Kumar 67 8:43:30 AM DNF DNF
77 Ricky 78 8:43:30 AM DNF DNF
78 Abhishek 83 8:43:30 AM DNF DNF
79 Sahil Kumar 85 8:43:30 AM   DNF DNF
80 Shabham Kant 88 8:43:30 AM DNF DNF
81 Rahul Kumar 90 8:43:30 AM DNF DNF
82 Narinder Kumar 91 8:43:30 AM DNF DNF
83 Dinesh Kumar Thakur 108 8:43:30 AM DNF DNF
84 Shyam Singh 112 8:43:30 AM DNF DNF
85 Sunil Kumar 115 8:43:30 AM DNF DNF
86 Manoj Kumar 70 8:43:30 AM DNF DNF

05KM Category

S.no. Name Bib No. Start Time Finish Time Timing Pace(min/km) Speed(Km/hr) Ranking
1 Manjula 39 8:47:00 AM 9:16:34 AM 0:29:34 5:55 10.15 1/26 finishers
2 Pooja Devi 104 8:47:00 AM 9:18:32 AM 0:31:32 6:18 9.51 2/26 finishers
3 Alisha 6 8:47:00 AM 9:19:24 AM 0:32:24 6:29 9.26 3/26 finishers
4 Kirana Kumari 7 8:47:00 AM 9:19:44 AM 0:32:44 6:33 9.16 4/26 finishers
5 Meena 11 8:47:00 AM 9:21:36 AM 0:34:36 6:55 8.67 5/26 finishers
6 Sargam Thakur 8 8:47:00 AM 9:22:00 AM 0:35:00 7:00 8.57 6/26 finishers
7 Champa Thakur 5 8:47:00 AM 9:23:36 AM 0:36:36 7:19 8.2 7/26 finishers
8 Pallavi Thakur 106 8:47:00 AM 9:24:38 AM 0:37:38 7:32 7.97 8/26 finishers
9 Aditi Thakur 1 8:47:00 AM 9:25:00 AM 0:38:00 7:36 7.89 9/26 finishers
10 Sapna 3 8:47:00 AM 9:25:00 AM 0:38:00 7:36 7.89 9/26 finishers
11 Vandana 12 8:47:00 AM 9:25:00 AM 0:38:00 7:36 7.89 9/26 finishers
12 Priyanka 13 8:47:00 AM 9:25:00 AM 0:38:00 7:36 7.89 9/26 finishers
13 Neha Thakur 16 8:47:00 AM 9:25:00 AM 0:38:00 7:36 7.89 9/26 finishers
14 Ameesha 103 8:47:00 AM 9:25:26 AM 0:38:26 7:41 7.81 10/26 finishers
15 Somrishi Bhatiya 102 8:47:00 AM 9:25:30 AM 0:38:30 7:42 7.79 11/26 finishers
16 Chandrika Kumari 4 8:47:00 AM 9:27:08 AM 0:40:08 8:02 7.48 12/26 finishers
17 Vardori Kumari 105 8:47:00 AM 9:27:30 AM 0:40:30 8:06 7.41 13/26 finishers
18 Sonam 15 8:47:00 AM 9:30:00 AM 0:43:00 8:36 6.98 14/26 finishers
19 Ankita 2 8:47:00 AM 9:30:55 AM 0:43:55 8:47 6.83 15/26 finishers
20 Kritko Thakur 107 8:47:00 AM 9:44:30 AM 0:57:30 11:30 5.22 16/26 finishers
21 Meskeen Kaur 96 8:47:00 AM 9:44:58 AM 0:57:58 11:36 5.18 17/26 finishers
22 Manveer Kaur 95 8:47:00 AM 9:59:00 AM 1:12:00 14:24 4.17 18/26 finishers
23 Rakshit Gupta 97 8:47:00 AM 9:59:00 AM 1:12:00 14:24 4.17 18/26 finishers
24 Jasjot Singh 98 8:47:00 AM 9:59:00 AM 1:12:00 14:24 4.17 18/26 finishers
25 Melishka 100 8:47:00 AM 9:59:00 AM 1:12:00 14:24 4.17 18/26 finishers
26 Radhika 99 8:47:00 AM 10:18:28 AM 1:31:28 18:18 3.28 19/26 finishers
27 Anjali 9 8:47:00 AM   DNF   DNF
28 Sakshi 10 8:47:00 AM   DNF   DNF
29 Deepa 14 8:47:00 AM   DNF   DNF
Did you find apk for android? You can find new Free Android Games and apps.